DW8016 Weather Reports


Display with metric or nautical units.
time (UTC)temp
F
wind
direction
speed
MPH
gust
MPH
rain 1hr
in
rain 24hr
in
rain mn
in
humidity
%
barometer
mb
20260510044705 58 197 0.0 0.0 0.00 0.00 0.00 86 1008.9
20260510043714 58 197 0.0 1.0 0.00 0.00 0.00 85 1009.1
20260510042640 59 197 0.0 0.0 0.00 0.00 0.00 85 1009.1
20260510041613 59 197 0.0 0.0 0.00 0.00 0.00 84 1009.0
20260510040602 59 197 0.0 1.0 0.00 0.00 0.00 84 1009.0
20260510035605 60 197 0.0 0.0 0.00 0.00 0.00 83 1009.0
20260510032320 61 197 0.0 0.0 0.00 0.00 0.00 80 1008.8
20260510031312 61 197 0.0 0.0 0.00 0.00 0.00 80 1008.8
20260510030331 62 197 0.0 0.0 0.00 0.00 0.00 79 1008.8
20260510025352 62 197 0.0 0.0 0.00 0.00 0.00 78 1008.7
20260510024319 63 197 0.0 0.0 0.00 0.00 0.00 77 1008.6
20260510023304 63 197 0.0 0.0 0.00 0.00 0.00 76 1008.5
20260510022312 64 197 0.0 0.0 0.00 0.00 0.00 75 1008.5
20260510021239 64 197 0.0 0.0 0.00 0.00 0.00 75 1008.4
20260510020247 64 197 0.0 0.0 0.00 0.00 0.00 74 1008.3
20260510015222 64 197 0.0 0.0 0.00 0.00 0.00 73 1008.3
20260510014228 64 197 0.0 0.0 0.00 0.00 0.00 73 1008.2
20260510013216 65 197 0.0 0.0 0.00 0.00 0.00 72 1008.1
20260510012202 65 197 0.0 0.0 0.00 0.00 0.00 71 1007.8
20260510011211 66 197 0.0 0.0 0.00 0.00 0.00 70 1007.6
20260510010201 66 197 0.0 0.0 0.00 0.00 0.00 69 1007.5
20260510005132 67 197 0.0 0.0 0.00 0.00 0.00 67 1007.4
20260510004153 68 197 0.0 0.0 0.00 0.00 0.00 66 1007.4
20260510003146 69 197 0.0 0.0 0.00 0.00 0.00 63 1007.3
20260510002158 70 197 0.0 0.0 0.00 0.00 0.00 62 1007.2
20260510001142 71 197 0.0 0.0 0.00 0.00 0.00 60 1007.2
20260509235006 72 197 0.0 0.0 0.00 0.00 0.00 56 1007.0
20260509232838 73 197 0.0 0.0 0.00 0.00 0.00 53 1006.9
20260509231902 73 197 0.0 3.0 0.00 0.00 0.00 53 1006.9
20260509230847 73 197 0.0 5.0 0.00 0.00 0.00 52 1006.9
20260509224717 74 194 0.0 5.0 0.00 0.00 0.00 53 1006.9
20260509223742 74 158 1.0 4.0 0.00 0.00 0.00 51 1006.9
20260509221638 74 145 2.0 7.0 0.00 0.00 0.00 51 1006.9
20260509220610 76 171 1.0 5.0 0.00 0.00 0.00 49 1006.9
20260509215624 75 284 0.0 6.0 0.00 0.00 0.00 49 1006.8
20260509214632 75 207 1.0 5.0 0.00 0.00 0.00 50 1006.8
20260509213624 75 273 1.0 5.0 0.00 0.00 0.00 49 1006.9
20260509212609 75 194 3.0 8.0 0.00 0.00 0.00 47 1006.8
20260509211617 76 135 2.0 8.0 0.00 0.00 0.00 48 1006.7
20260509210620 76 251 2.0 9.0 0.00 0.00 0.00 47 1006.9
20260509205640 77 272 3.0 9.0 0.00 0.00 0.00 48 1006.8
20260509204645 76 282 2.0 8.0 0.00 0.00 0.00 48 1006.8
20260509203703 76 193 2.0 6.0 0.00 0.00 0.00 50 1006.7
20260509202728 75 158 2.0 6.0 0.00 0.00 0.00 51 1006.6
20260509201707 75 193 1.0 6.0 0.00 0.00 0.00 50 1006.7
20260509200714 75 184 1.0 6.0 0.00 0.00 0.00 51 1007.0
20260509195704 76 259 2.0 6.0 0.00 0.00 0.00 49 1007.2
20260509194727 75 207 2.0 9.0 0.00 0.00 0.00 51 1007.3
20260509193726 75 181 2.0 10.0 0.00 0.00 0.00 52 1007.5
20260509192722 73 240 1.0 10.0 0.00 0.00 0.00 55 1007.7
20260509190608 71 275 0.0 2.0 0.00 0.00 0.00 60 1007.9
20260509185617 70 286 1.0 4.0 0.00 0.00 0.00 62 1007.9
20260509183414 69 188 4.0 12.0 0.00 0.00 0.00 64 1008.2
20260509182346 70 186 3.0 8.0 0.00 0.00 0.00 56 1008.2
20260509181404 70 205 3.0 11.0 0.00 0.00 0.00 54 1008.5
20260509180333 71 275 2.0 11.0 0.00 0.00 0.00 52 1008.6
20260509175324 72 269 2.0 9.0 0.00 0.00 0.00 52 1008.7
20260509174305 72 258 2.0 6.0 0.00 0.00 0.00 52 1008.8
20260509172154 73 253 1.0 8.0 0.00 0.00 0.00 52 1008.8
20260509171146 72 213 2.0 8.0 0.00 0.00 0.00 54 1008.9
20260509170139 72 203 1.0 5.0 0.00 0.00 0.00 54 1009.0
20260509165127 71 209 0.0 6.0 0.00 0.00 0.00 54 1009.0
20260509164136 70 190 2.0 7.0 0.00 0.00 0.00 55 1009.2
20260509163115 71 222 2.0 7.0 0.00 0.00 0.00 54 1009.2
20260509162129 71 146 2.0 10.0 0.00 0.00 0.00 54 1009.2
20260509160031 71 91 4.0 10.0 0.00 0.00 0.00 53 1009.2
20260509155006 71 218 2.0 7.0 0.00 0.00 0.00 53 1009.5
20260509153935 72 302 3.0 9.0 0.00 0.00 0.00 51 1009.5
20260509152958 72 198 4.0 9.0 0.00 0.00 0.00 51 1009.6
20260509150759 69 288 3.0 7.0 0.00 0.00 0.00 55 1009.7
20260509145729 68 221 4.0 9.0 0.00 0.00 0.00 58 1009.9
20260509144728 66 243 2.0 9.0 0.00 0.00 0.00 60 1010.0
20260509141425 63 200 1.0 6.0 0.00 0.00 0.00 64 1010.4
20260509140358 62 189 1.0 5.0 0.00 0.00 0.00 65 1010.3
20260509134222 61 182 2.0 8.0 0.00 0.00 0.00 65 1010.4
20260509133237 61 202 1.0 7.0 0.00 0.00 0.00 65 1010.4
20260509132237 61 196 0.0 8.0 0.00 0.00 0.00 65 1010.5
20260509131209 61 215 2.0 9.0 0.00 0.00 0.00 65 1010.5
20260509130201 60 168 3.0 9.0 0.00 0.00 0.00 65 1010.3
20260509125127 60 184 3.0 9.0 0.00 0.00 0.00 65 1010.3
20260509124119 60 205 4.0 10.0 0.00 0.00 0.00 64 1010.2
20260509123046 60 211 4.0 10.0 0.00 0.00 0.00 63 1010.2
20260509122101 60 201 3.0 11.0 0.00 0.00 0.00 64 1010.2
20260509121111 60 209 4.0 13.0 0.00 0.00 0.00 63 1010.3
20260509114950 60 215 4.0 12.0 0.00 0.00 0.00 61 1010.2
20260509114000 60 218 4.0 12.0 0.00 0.00 0.00 61 1010.2
20260509111757 60 187 4.0 11.0 0.00 0.00 0.00 60 1010.0
20260509110725 59 173 4.0 11.0 0.00 0.00 0.00 60 1010.1
20260509105710 59 173 3.0 10.0 0.00 0.00 0.00 57 1010.0
20260509104728 59 224 3.0 10.0 0.00 0.00 0.00 56 1010.0
20260509103724 59 185 4.0 9.0 0.00 0.00 0.00 55 1009.9
20260509100451 60 184 2.0 6.0 0.00 0.00 0.00 52 1009.7
20260509095510 60 211 2.0 6.0 0.00 0.00 0.00 52 1009.6
20260509094437 60 184 1.0 7.0 0.00 0.00 0.00 52 1009.6
20260509093410 60 180 1.0 7.0 0.00 0.00 0.00 52 1009.7
20260509092342 60 256 2.0 9.0 0.00 0.00 0.00 52 1009.8
20260509091335 60 242 2.0 9.0 0.00 0.00 0.00 52 1009.8
20260509085139 60 254 1.0 8.0 0.00 0.00 0.00 52 1009.9
20260509084137 60 251 3.0 9.0 0.00 0.00 0.00 52 1010.0
20260509082022 60 192 2.0 12.0 0.00 0.00 0.00 52 1010.2
20260509081024 60 255 4.0 12.0 0.00 0.00 0.00 53 1010.3
20260509080026 60 224 4.0 12.0 0.00 0.00 0.00 54 1010.4
20260509075019 60 171 3.0 9.0 0.00 0.00 0.00 54 1010.5
20260509074004 60 180 4.0 12.0 0.00 0.00 0.00 55 1010.5
20260509073022 60 261 5.0 14.0 0.00 0.00 0.00 54 1010.5
20260509072044 60 169 5.0 14.0 0.00 0.00 0.00 54 1010.5
20260509071035 60 155 3.0 10.0 0.00 0.00 0.00 54 1010.6
20260509070058 60 198 4.0 10.0 0.00 0.00 0.00 53 1010.5
20260509065029 60 180 5.0 9.0 0.00 0.00 0.00 53 1010.7
20260509064043 60 213 4.0 14.0 0.00 0.00 0.00 52 1010.7
20260509063042 60 242 4.0 14.0 0.00 0.00 0.00 52 1010.8
20260509062018 60 138 3.0 8.0 0.00 0.00 0.00 52 1010.9
20260509061006 60 232 3.0 10.0 0.00 0.00 0.00 52 1010.9
20260509060028 61 160 3.0 10.0 0.00 0.00 0.00 52 1010.9
20260509054959 61 177 2.0 8.0 0.00 0.00 0.00 51 1010.9
20260509053946 61 253 3.0 8.0 0.00 0.00 0.00 51 1011.0
20260509051822 60 217 3.0 8.0 0.00 0.00 0.00 52 1011.0
20260509050811 60 198 2.0 9.0 0.00 0.00 0.00 52 1011.0
20260509045816 60 182 2.0 9.0 0.00 0.00 0.00 53 1010.9